EW4964 Weather Reports


Display with metric or nautical units.
time (UTC)temp
F
wind
direction
speed
MPH
gust
MPH
rain 1hr
in
rain 24hr
in
rain mn
in
humidity
%
barometer
mb
20260903211507 58 320 3.0 7.0 0.00 0.00 0.00 43 1018.0
20260903204508 58 294 4.0 8.0 0.00 0.00 0.00 42 1018.1
20260903203007 59 229 4.0 8.0 0.00 0.00 0.00 41 1018.1
20260903201507 59 280 4.0 9.0 0.00 0.00 0.00 41 1018.1
20260903200008 60 319 4.0 8.0 0.00 0.00 0.00 39 1018.2
20260903194507 60 132 4.0 12.0 0.00 0.00 0.00 38 1018.2
20260903193007 60 252 6.0 14.0 0.00 0.00 0.00 36 1017.9
20260903191507 61 320 3.0 8.0 0.00 0.00 0.00 35 1017.7
20260903184506 61 261 3.0 7.0 0.00 0.00 0.00 33 1017.8
20260903183007 61 223 4.0 7.0 0.00 0.00 0.00 32 1017.9
20260903180007 61 262 3.0 7.0 0.00 0.00 0.00 32 1017.6
20260903174506 62 248 2.0 5.0 0.00 0.00 0.00 29 1017.6
20260903173007 62 249 1.0 4.0 0.00 0.00 0.00 29 1017.7
20260903171506 63 287 1.0 3.0 0.00 0.00 0.00 28 1017.8
20260903170007 63 241 2.0 5.0 0.00 0.00 0.00 27 1017.6
20260903164506 64 286 2.0 5.0 0.00 0.00 0.00 27 1017.7
20260903161507 65 334 2.0 6.0 0.00 0.00 0.00 26 1017.8
20260903160007 65 309 3.0 8.0 0.00 0.00 0.00 25 1017.9
20260903154507 66 312 5.0 11.0 0.00 0.00 0.00 25 1018.0
20260903151507 67 335 4.0 8.0 0.00 0.00 0.00 25 1018.3
20260903150006 67 324 4.0 8.0 0.00 0.00 0.00 25 1017.8
20260903144506 68 179 5.0 11.0 0.00 0.00 0.00 24 1018.0
20260903143006 69 345 4.0 10.0 0.00 0.00 0.00 25 1017.9
20260903141506 69 327 4.0 11.0 0.00 0.00 0.00 25 1018.1
20260903140006 68 284 5.0 13.0 0.00 0.00 0.00 26 1018.2
20260903134506 67 323 4.0 8.0 0.00 0.00 0.00 26 1018.3
20260903133006 66 257 4.0 9.0 0.00 0.00 0.00 26 1018.1
20260903131506 66 279 3.0 7.0 0.00 0.00 0.00 26 1018.0
20260903130007 67 346 3.0 7.0 0.00 0.00 0.00 26 1018.3
20260903123006 67 277 4.0 9.0 0.00 0.00 0.00 25 1017.9
20260903121506 67 316 4.0 10.0 0.00 0.00 0.00 26 1018.3
20260903120006 66 348 3.0 8.0 0.00 0.00 0.00 26 1018.3
20260903114506 67 44 3.0 8.0 0.00 0.00 0.00 26 1018.5
20260903113005 67 296 5.0 17.0 0.00 0.00 0.00 25 1018.9
20260903111506 67 205 4.0 7.0 0.00 0.00 0.00 26 1018.8
20260903110006 67 321 4.0 11.0 0.00 0.00 0.00 26 1018.9
20260903104506 65 299 4.0 13.0 0.00 0.00 0.00 29 1018.7
20260903103006 65 359 5.0 10.0 0.00 0.00 0.00 27 1019.0
20260903101506 66 325 5.0 10.0 0.00 0.00 0.00 28 1019.0
20260903100006 64 323 3.0 7.0 0.00 0.00 0.00 31 1019.0
20260903094506 64 207 4.0 9.0 0.00 0.00 0.00 31 1019.1
20260903091506 64 271 4.0 9.0 0.00 0.00 0.00 31 1019.0
20260903090005 64 288 4.0 8.0 0.00 0.00 0.00 32 1019.0
20260903084506 63 290 3.0 6.0 0.00 0.00 0.00 33 1019.2
20260903083006 62 271 3.0 7.0 0.00 0.00 0.00 33 1019.4
20260903081505 62 306 2.0 5.0 0.00 0.00 0.00 33 1019.5
20260903080005 62 254 2.0 4.0 0.00 0.00 0.00 33 1019.3
20260903074506 63 259 2.0 6.0 0.00 0.00 0.00 32 1019.2
20260903073005 62 292 3.0 8.0 0.00 0.00 0.00 32 1018.9
20260903064506 60 354 2.0 4.0 0.00 0.00 0.00 41 1018.9
20260903063005 58 342 2.0 5.0 0.00 0.00 0.00 43 1019.1
20260903060005 58 347 1.0 3.0 0.00 0.00 0.00 42 1018.8
20260903054505 57 289 1.0 4.0 0.00 0.00 0.00 43 1018.9
20260903053005 57 329 1.0 5.0 0.00 0.00 0.00 43 1018.7
20260903050005 56 1 1.0 3.0 0.00 0.00 0.00 44 1018.6
20260903044505 56 319 1.0 4.0 0.00 0.00 0.00 44 1018.7
20260903043005 55 297 1.0 3.0 0.00 0.00 0.00 44 1018.7
20260903041505 55 320 1.0 3.0 0.00 0.00 0.00 44 1018.6
20260903040008 55 306 1.0 2.0 0.00 0.00 0.00 43 1018.6
20260903034505 56 299 1.0 3.0 0.00 0.00 0.00 44 1018.4
20260903033005 55 342 1.0 3.0 0.00 0.00 0.00 44 1018.4
20260903031505 55 325 0.0 2.0 0.00 0.00 0.00 44 1018.4
20260903024505 55 46 0.0 2.0 0.00 0.00 0.00 44 1018.5
20260903021504 55 45 0.0 1.0 0.00 0.00 0.00 43 1018.6
20260903020005 56 45 0.0 2.0 0.00 0.00 0.00 43 1018.5
20260903014505 56 45 0.0 2.0 0.00 0.00 0.00 42 1018.7
20260903013004 57 31 3.0 6.0 0.00 0.00 0.00 41 1018.9
20260903011504 56 1 0.0 1.0 0.00 0.00 0.00 39 1018.7
20260903010004 56 1 0.0 1.0 0.00 0.00 0.00 37 1018.8
20260903004504 57 1 0.0 2.0 0.00 0.00 0.00 37 1018.7
20260903001508 58 1 0.0 1.0 0.00 0.00 0.00 37 1018.6
20260903000008 57 1 0.0 2.0 0.00 0.00 0.00 37 1018.4
20260902233008 57 1 2.0 4.0 0.00 0.00 0.00 37 1018.8
20260902231507 56 1 0.0 2.0 0.00 0.00 0.00 36 1019.1
20260902230008 57 0 0.0 0.0 0.00 0.00 0.00 35 1019.0
20260902224507 58 314 0.0 1.0 0.00 0.00 0.00 35 1019.0
20260902223008 59 315 0.0 2.0 0.00 0.00 0.00 34 1018.8
20260902221507 60 294 1.0 4.0 0.00 0.00 0.00 33 1018.9
20260902220013 60 259 2.0 4.0 0.00 0.00 0.00 34 1019.1
20260902214508 60 248 2.0 4.0 0.00 0.00 0.00 34 1019.0
20260902213008 60 266 1.0 4.0 0.00 0.00 0.00 34 1018.9